GFSFLT1_sfc_wetblb_132.txt.gz
Wetbulb
71.59 71.45 71.64 72.82 72.87 73.31 73.20 72.91 73.10 73.06 72.94 72.67 72.82 72.92 72.27 70.88 68.87 69.08 70.67 69.07 72.07 72.53 72.76 72.90 73.22 73.08 72.94 73.52 73.20 73.47 72.25 72.18 73.35
71.38 71.28 71.40 72.04 71.74 72.80 72.83 72.84 72.66 72.51 72.30 72.20 72.56 72.21 71.17 67.62 67.76 68.23 69.29 70.11 72.25 71.51 72.10 71.96 72.44 72.40 72.32 72.49 73.22 72.51 72.39 72.45 72.91
71.06 70.96 71.14 70.91 71.21 71.99 72.04 71.68 71.62 71.88 71.89 71.84 71.45 70.65 69.25 67.33 67.82 68.34 69.18 71.74 72.14 71.92 71.38 71.32 71.54 71.63 71.62 71.74 72.36 71.87 71.47 72.06 72.29
70.58 70.29 70.96 71.44 71.18 71.71 71.78 71.28 71.53 71.68 71.39 70.88 70.34 69.61 68.23 64.02 65.67 67.87 68.22 71.30 71.01 71.60 71.22 70.99 70.83 70.50 70.78 70.58 71.06 71.10 71.59 71.59 71.62
70.44 69.58 70.73 71.39 71.55 71.89 71.22 70.32 70.38 70.30 70.33 69.53 68.51 67.51 66.05 62.05 63.64 65.93 67.73 69.70 69.91 69.68 69.09 69.20 69.40 70.08 70.47 70.49 70.16 70.21 69.97 70.12 70.45
67.67 68.51 69.88 71.12 70.99 70.92 70.27 69.79 69.40 68.96 68.54 67.82 66.68 64.37 60.80 62.36 62.61 64.72 68.61 68.29 68.36 68.04 67.57 67.32 67.27 67.29 67.39 67.67 68.54 68.86 69.05 68.64 68.67
67.31 68.75 69.66 70.67 70.32 70.59 69.91 68.94 67.88 63.52 59.85 61.66 62.50 59.70 60.02 60.90 61.58 64.42 68.06 67.38 67.76 67.58 67.06 66.69 66.63 66.65 66.58 66.22 66.09 65.94 65.91 66.37 67.12
65.94 65.66 62.64 63.68 66.94 63.21 63.63 59.29 57.78 57.35 58.47 58.20 58.48 59.17 59.34 59.75 61.12 65.68 67.74 67.07 66.95 66.87 66.43 65.94 65.70 65.59 65.44 65.33 65.18 65.29 65.27 65.14 65.14
63.14 62.51 58.59 58.61 61.44 57.96 56.88 56.00 56.33 56.81 56.92 56.93 57.15 57.69 58.49 59.27 60.24 64.38 67.07 66.38 66.21 66.38 65.98 65.43 64.99 64.65 64.59 64.48 64.19 63.93 63.93 64.05 64.00
61.57 58.55 57.10 57.35 58.30 57.08 55.32 55.48 56.19 56.00 56.27 56.75 56.93 56.75 57.32 58.22 59.39 61.04 66.21 66.46 65.60 65.52 65.44 65.10 64.73 64.36 63.84 63.48 63.31 63.05 62.91 62.96 63.05
60.74 57.41 56.22 56.35 56.22 54.34 55.40 55.95 55.92 55.17 56.12 56.17 56.44 55.96 56.53 57.15 58.05 59.17 62.13 65.80 65.49 64.88 64.84 64.57 64.27 63.88 63.47 62.92 62.54 62.26 62.01 62.00 61.95
59.61 56.97 55.80 54.46 52.57 52.40 54.73 54.17 54.93 55.00 55.59 53.95 54.84 55.48 55.02 55.21 55.38 56.32 57.33 59.86 64.96 64.68 63.86 63.76 63.71 63.44 63.00 62.51 61.96 61.67 61.50 61.47 61.42
58.30 56.20 55.09 51.36 50.75 53.35 55.21 55.43 53.43 53.77 54.11 52.94 53.75 53.33 53.20 52.92 53.38 54.18 54.48 54.93 56.45 62.62 64.18 63.02 63.08 62.77 62.58 61.91 61.28 60.93 60.86 60.81 60.58
58.13 55.97 52.95 50.59 49.44 53.29 54.83 52.72 54.88 53.43 52.53 52.99 51.72 51.21 51.25 51.57 53.14 52.28 53.74 54.13 53.84 55.66 63.43 63.62 62.83 61.98 61.95 61.47 60.88 60.23 60.08 59.90 59.68
57.79 54.48 51.11 49.79 49.37 50.54 52.46 52.35 49.87 53.13 52.85 53.29 48.69 48.28 48.79 50.12 50.26 50.65 52.25 51.80 51.80 51.76 52.29 53.03 57.03 61.29 60.66 60.48 60.43 59.72 59.25 58.73 58.61
55.73 53.39 49.16 48.43 49.57 51.04 52.05 49.91 50.85 47.34 48.34 47.40 45.98 45.64 46.12 47.44 47.72 47.63 48.41 49.11 49.63 49.85 50.71 50.93 51.73 54.10 58.99 58.63 58.19 58.50 58.46 57.96 57.43
55.57 51.82 48.98 47.81 47.48 48.45 50.03 50.40 46.58 45.41 47.12 46.62 44.86 44.06 45.56 44.98 47.22 47.40 47.44 46.26 46.02 48.59 48.39 49.37 50.02 49.56 49.73 52.67 55.85 56.22 56.34 56.57 56.30
56.30 51.81 50.15 47.84 48.29 48.87 48.37 49.27 47.95 46.39 45.63 46.61 45.28 40.50 41.26 43.89 45.51 45.70 45.92 46.21 45.37 45.47 47.19 47.58 48.93 47.92 47.26 51.96 52.43 55.24 53.76 54.02 54.42
53.52 51.18 47.82 47.11 46.99 46.65 47.90 49.04 47.97 49.29 47.48 46.66 47.78 45.60 46.56 44.27 43.38 45.78 45.77 46.44 47.23 46.44 46.81 47.91 47.54 47.73 45.34 50.39 50.81 52.95 52.04 51.70 52.13
52.88 51.67 48.98 46.97 46.59 46.63 47.67 47.07 46.99 46.90 46.72 46.95 47.22 47.20 46.66 46.23 45.28 43.01 44.19 44.84 44.38 46.38 46.97 45.72 45.47 46.55 45.91 45.87 48.58 53.31 52.53 50.40 50.28

GFSFLT1_sfc_wetblb_135.txt.gz
Wetbulb
71.94 72.83 73.41 73.75 73.55 73.41 73.34 73.38 73.33 73.24 73.10 72.79 73.02 72.87 72.25 72.35 71.65 70.94 71.39 71.81 73.00 73.16 72.77 73.30 73.42 73.39 73.45 74.01 73.80 73.31 72.86 73.40 74.40
71.70 72.07 73.08 73.09 73.01 73.13 73.05 72.87 73.25 73.03 72.83 72.91 72.73 72.32 71.64 71.55 71.70 71.72 71.10 70.90 72.58 72.22 72.29 72.29 72.31 72.27 72.57 73.18 73.39 73.14 72.43 72.68 73.23
71.22 71.74 71.81 71.89 72.79 72.42 72.28 72.57 72.68 72.54 72.28 72.19 71.90 71.05 71.23 71.14 71.12 71.05 71.35 72.31 72.07 71.92 71.36 71.36 71.17 71.63 71.81 71.84 71.88 72.07 72.18 72.73 72.53
71.26 71.47 71.39 71.77 72.36 71.95 71.68 71.82 71.93 72.00 71.74 71.53 70.95 70.19 69.97 70.24 70.04 69.65 70.01 71.31 70.94 71.34 71.34 71.05 70.74 70.72 70.52 70.81 71.04 71.37 71.28 71.50 71.67
71.30 71.82 71.89 71.46 71.88 71.54 71.02 71.22 71.14 70.94 70.66 70.29 69.47 68.24 69.00 68.55 68.81 68.94 68.56 69.87 69.41 69.30 69.06 69.13 69.30 69.78 70.02 69.98 69.55 69.93 69.94 70.29 70.46
69.96 71.05 72.24 71.89 71.53 71.01 70.79 70.36 70.28 69.81 68.86 68.25 67.23 67.73 67.24 67.28 67.20 66.50 67.83 68.20 68.22 68.07 67.71 67.44 67.30 67.21 67.32 67.34 67.53 67.75 67.98 68.51 68.98
68.26 70.21 71.90 71.63 70.87 70.63 70.14 69.51 67.90 67.00 66.99 66.24 66.18 66.33 66.43 66.21 66.12 66.43 68.59 67.77 67.92 67.71 67.14 66.81 66.67 66.61 66.58 66.46 66.29 66.27 66.28 66.34 66.53
67.87 68.46 70.56 70.25 70.59 68.95 68.25 65.90 65.16 64.76 64.87 65.14 65.41 65.59 65.54 65.88 65.76 66.78 67.96 67.27 67.15 66.99 66.44 65.87 65.70 65.72 65.61 65.42 65.41 65.33 65.26 65.35 65.46
67.09 66.50 68.04 68.21 68.28 66.44 64.66 63.50 63.70 63.92 64.46 64.80 64.58 64.97 65.11 65.28 65.44 66.28 67.25 66.69 66.48 66.35 65.99 65.62 65.21 64.88 64.71 64.61 64.54 64.46 64.46 64.41 64.40
65.43 63.35 65.27 65.65 66.32 64.26 62.48 62.71 62.85 63.20 63.66 64.10 64.08 64.20 64.60 64.88 64.86 64.98 66.65 66.84 65.93 65.83 65.71 65.26 64.79 64.40 64.09 63.80 63.62 63.52 63.53 63.64 63.61
63.99 62.10 63.77 63.64 64.98 62.36 61.98 61.95 62.14 62.36 63.18 63.02 63.51 63.55 63.93 64.25 64.42 64.44 64.97 66.15 65.83 65.23 65.10 64.77 64.48 64.22 63.76 63.42 63.17 62.98 62.98 62.91 62.77
63.04 61.68 62.31 62.23 63.47 61.21 61.25 61.32 61.70 61.65 62.06 61.94 62.55 62.86 63.06 63.23 63.19 63.47 64.00 64.14 65.39 65.15 64.14 64.13 63.95 63.65 63.33 62.90 62.67 62.43 62.26 62.09 62.05
61.96 60.86 60.90 59.87 59.92 60.86 60.67 60.75 60.62 60.59 60.75 60.46 60.61 60.66 61.08 61.42 61.33 61.78 62.20 62.85 62.85 64.27 64.63 63.40 63.35 63.04 62.65 62.27 61.87 61.56 61.48 61.30 61.28
61.34 60.36 58.97 57.62 58.60 60.14 60.02 60.00 60.27 59.42 59.41 58.89 58.84 58.97 58.98 59.41 59.57 60.25 60.76 61.33 62.13 62.48 63.95 64.05 63.27 62.32 62.12 61.71 61.38 60.98 60.66 60.50 60.39
60.48 59.19 56.46 55.89 58.15 58.81 59.76 59.34 60.07 59.72 58.89 57.37 56.14 56.72 57.00 58.18 58.54 58.87 58.31 58.92 59.49 60.31 60.82 61.35 61.56 61.87 60.93 60.80 60.80 60.28 59.86 59.53 59.47
59.30 57.90 54.80 55.48 57.63 58.58 59.64 58.38 57.67 56.52 56.96 55.73 54.63 54.41 55.64 56.63 56.80 57.41 57.91 57.57 57.87 58.62 59.34 60.00 60.45 59.78 59.56 58.84 59.25 59.63 59.57 58.86 58.42
57.55 55.37 54.12 53.79 56.28 57.82 57.58 57.56 57.10 55.71 57.23 55.30 54.60 52.14 53.98 55.13 55.64 56.04 55.16 54.47 55.17 56.33 56.98 58.20 58.66 58.60 58.00 57.50 56.57 57.25 57.37 57.25 57.11
56.06 55.32 53.18 54.73 56.27 56.79 57.47 57.92 57.56 55.02 54.20 55.90 54.16 50.07 49.62 52.49 53.25 53.33 53.42 53.88 52.22 52.94 53.08 54.18 56.25 56.82 56.45 56.35 55.27 55.55 54.57 55.00 55.27
56.49 51.97 52.62 51.22 54.80 56.04 56.83 57.60 57.62 57.13 54.56 53.44 53.01 53.24 53.29 50.73 47.12 49.75 49.86 53.34 51.32 51.19 53.60 54.26 54.65 54.01 55.29 53.21 52.28 53.32 52.36 52.28 52.83
54.39 51.58 50.18 50.63 53.31 55.07 56.65 56.74 56.33 57.92 56.26 55.01 52.29 51.31 50.54 51.44 49.42 45.94 46.54 47.29 49.30 49.77 52.01 53.74 52.38 53.77 54.12 53.56 52.82 53.27 53.20 50.96 50.86

GFSFLT1_sfc_wetblb_138.txt.gz
Wetbulb
73.57 73.62 73.84 73.93 73.83 73.83 73.78 73.70 73.50 73.13 72.64 73.02 72.91 72.65 73.60 72.78 71.37 71.43 72.54 72.78 73.14 73.18 72.92 73.10 73.34 73.50 73.37 73.93 73.96 73.54 73.48 73.52 74.14
73.27 73.64 73.50 73.44 73.38 73.41 73.39 73.25 73.19 73.35 72.93 73.17 72.54 72.37 73.52 71.62 71.27 70.54 71.02 71.81 72.36 72.57 72.57 72.36 72.39 72.35 72.49 72.96 73.44 73.00 73.10 73.02 73.56
72.65 73.09 73.22 73.03 72.73 72.96 72.85 72.62 72.87 72.73 72.54 72.45 71.98 72.41 72.40 70.66 70.40 71.61 71.49 72.08 71.85 71.76 71.76 71.39 71.40 71.69 71.79 71.92 71.98 71.98 72.46 72.56 72.63
72.26 72.19 72.72 72.78 72.41 72.30 72.37 72.23 72.52 72.35 72.16 71.77 71.21 71.38 71.76 70.38 69.78 69.54 69.91 70.87 70.84 71.25 70.80 70.65 70.60 70.43 70.65 70.70 71.24 71.35 71.56 71.78 71.98
72.17 72.43 72.52 72.55 72.02 71.97 71.95 72.08 72.05 71.68 71.25 70.53 69.98 70.76 70.78 69.54 68.81 68.43 67.79 69.56 68.92 69.36 68.91 68.68 68.72 68.87 68.95 69.16 69.80 70.15 70.46 70.73 70.98
71.00 72.02 72.41 72.15 71.55 71.64 71.41 71.10 70.83 70.26 69.48 68.75 68.45 70.57 68.95 68.04 67.46 67.18 67.89 68.46 68.50 68.20 67.77 67.48 67.47 67.55 67.63 67.76 67.80 67.80 68.37 68.84 69.08
70.10 71.62 72.15 71.65 71.21 71.01 70.82 70.30 69.50 70.66 69.27 68.16 68.20 68.52 67.72 66.90 66.96 66.99 68.41 67.97 67.77 67.56 67.08 66.90 66.70 66.70 66.76 66.49 66.54 66.53 66.64 66.84 67.13
69.03 71.03 71.10 71.08 70.84 69.68 69.62 68.63 67.81 67.43 67.89 68.15 68.04 67.14 66.25 66.32 66.34 67.02 68.07 67.18 66.99 66.88 66.38 66.04 65.85 65.94 65.93 65.79 65.77 65.74 65.56 65.59 65.45
67.01 68.85 69.01 69.17 69.92 68.29 67.69 66.45 66.18 66.12 66.26 66.43 66.27 65.65 65.66 65.69 65.75 66.30 67.32 66.64 66.42 66.48 66.05 65.58 65.28 65.06 64.98 65.03 65.13 65.00 64.99 64.89 64.79
66.61 67.92 69.05 68.10 68.39 67.49 65.37 65.07 65.00 65.06 65.51 65.37 64.62 64.63 65.30 65.37 65.35 65.61 66.70 66.96 65.98 65.76 65.63 65.34 65.00 64.72 64.55 64.47 64.38 64.22 64.02 63.90 63.80
66.81 66.60 67.78 67.94 67.23 65.10 63.97 62.88 63.26 63.59 63.87 63.51 64.03 64.41 64.71 64.80 64.84 64.84 65.56 66.39 66.12 65.30 65.16 65.01 64.73 64.61 64.30 64.01 63.78 63.56 63.52 63.38 63.14
66.30 65.99 66.23 66.56 66.85 64.70 63.90 62.80 63.28 63.23 63.37 63.23 63.60 63.80 63.93 64.07 64.11 64.07 64.31 64.60 65.38 65.32 64.32 64.24 64.09 63.94 63.78 63.43 63.03 62.82 62.76 62.60 62.44
65.38 64.93 65.17 66.57 65.70 64.39 63.23 62.27 62.19 62.42 62.46 62.27 62.43 62.76 63.03 63.06 63.21 63.48 63.52 63.06 62.99 64.43 64.92 63.58 63.44 63.14 62.91 62.73 62.39 62.07 61.96 61.78 61.69
65.22 63.74 65.37 64.74 64.46 63.66 62.82 62.09 61.41 60.45 61.32 61.33 61.76 61.98 61.84 61.72 61.47 61.76 62.44 62.95 63.07 62.65 63.54 63.99 63.44 62.45 62.41 62.18 61.82 61.40 61.25 61.02 60.83
64.10 62.96 63.85 63.52 63.48 62.60 62.72 61.47 61.63 61.05 60.78 59.92 59.94 60.79 60.97 60.99 60.38 60.43 60.68 61.62 61.56 61.65 61.72 62.21 61.78 61.47 61.04 61.17 61.28 60.87 60.41 60.12 60.12
63.18 62.72 62.98 63.31 62.69 62.59 62.78 61.52 60.31 59.88 60.60 58.96 58.32 58.70 59.49 59.31 59.45 59.79 59.29 59.80 60.02 60.38 60.85 61.03 60.94 60.04 59.20 59.00 59.48 60.10 59.66 59.34 58.99
61.11 61.40 61.73 61.72 62.16 62.24 61.80 60.86 59.68 59.99 59.90 57.02 56.36 53.39 55.34 57.43 57.73 58.34 58.05 57.86 58.59 58.95 59.54 59.92 60.07 59.98 58.77 57.50 56.79 57.52 57.58 57.76 57.89
60.76 59.85 58.34 59.29 61.54 61.51 61.38 61.61 60.56 58.03 59.33 59.28 57.20 53.16 51.86 54.46 56.87 56.59 57.13 56.97 56.42 57.27 58.03 57.45 58.45 59.32 58.80 56.63 55.51 55.12 55.10 55.53 55.83
59.39 59.83 60.50 58.73 61.42 61.72 61.84 62.07 60.92 60.04 57.23 58.32 57.05 57.69 57.07 52.70 51.72 55.69 56.16 56.34 56.10 55.61 55.38 56.38 56.86 57.83 58.25 55.19 53.30 53.71 52.68 52.77 53.24
55.66 56.56 57.64 58.72 60.52 61.58 61.92 61.86 61.72 61.06 59.19 57.71 56.17 55.72 55.82 56.32 53.95 51.48 53.00 54.62 54.94 52.16 54.51 56.88 55.91 57.11 57.41 57.28 55.86 53.32 53.77 51.84 51.36

GFSFLT1_sfc_wetblb_141.txt.gz
Wetbulb
73.56 74.22 74.25 74.22 74.23 74.03 73.98 73.70 72.98 72.71 72.71 73.05 73.18 74.22 74.10 72.32 71.70 71.75 71.95 71.91 72.75 72.99 72.72 72.84 73.32 73.91 73.49 73.80 74.01 74.24 73.53 73.76 74.37
73.77 73.98 73.89 73.77 73.65 73.64 73.49 73.35 73.30 73.55 72.95 72.85 72.97 73.63 73.38 70.65 70.95 70.64 71.19 71.21 72.31 72.45 72.44 72.18 72.21 72.85 72.94 72.94 73.42 73.30 72.91 73.24 73.55
73.60 73.60 73.47 73.47 73.48 73.19 73.06 72.93 73.02 72.59 72.37 72.47 72.44 73.29 72.16 70.43 70.00 70.32 70.80 71.81 71.97 72.13 71.58 71.20 71.22 71.53 71.58 72.04 72.29 72.64 72.67 73.06 73.09
73.21 73.21 73.15 72.96 73.04 72.89 72.78 72.66 72.50 72.42 72.07 71.71 71.98 72.51 71.80 68.31 68.99 68.26 69.10 70.79 70.63 70.57 70.26 70.14 69.92 70.08 70.41 70.80 71.50 71.92 71.84 71.99 72.10
72.75 73.05 72.89 72.58 72.50 72.52 72.29 72.12 72.12 71.75 71.32 70.97 71.26 71.09 70.69 67.64 67.62 67.17 67.35 69.66 68.95 68.62 68.23 68.22 68.85 68.96 69.01 69.26 69.97 70.31 70.46 70.58 70.53
70.62 71.75 73.07 72.04 71.99 72.22 72.10 71.68 71.30 70.56 70.11 68.74 68.28 70.00 67.28 66.74 66.55 66.72 67.84 68.40 68.43 68.31 67.96 67.69 67.68 67.78 67.87 68.15 68.11 68.26 68.49 68.87 69.16
69.53 71.24 72.23 72.07 71.44 71.53 71.38 71.00 70.65 70.77 68.02 67.29 67.94 67.28 66.55 66.29 65.96 65.67 67.18 67.89 67.84 67.59 67.15 67.04 66.97 66.98 66.99 66.82 66.68 66.68 66.65 66.75 66.98
69.65 70.14 70.05 71.06 70.73 69.83 69.92 69.42 69.36 68.64 68.15 67.79 67.06 65.90 65.77 66.07 65.84 66.38 67.15 67.13 67.07 66.97 66.56 66.25 66.21 66.26 66.29 66.21 66.07 65.94 65.90 65.78 65.61
67.56 69.04 69.23 70.47 69.68 68.19 67.51 66.50 66.10 65.95 66.03 66.26 65.56 64.95 65.06 65.23 65.14 65.94 67.18 66.94 66.36 66.37 66.19 65.88 65.70 65.65 65.59 65.47 65.34 65.15 65.03 65.03 64.93
66.69 67.11 68.34 69.04 68.19 67.18 65.66 64.91 64.65 64.47 64.77 65.17 64.21 64.15 64.31 64.35 64.64 64.49 66.61 66.58 65.98 65.90 65.94 65.81 65.59 65.31 65.23 65.07 64.87 64.66 64.47 64.39 64.29
66.55 65.90 67.25 67.27 67.12 65.86 64.23 63.69 63.65 64.21 64.11 62.97 63.44 63.69 64.03 63.77 63.80 64.42 65.13 66.30 66.20 65.54 65.51 65.37 65.32 65.08 64.67 64.46 64.22 64.00 63.83 63.70 63.54
66.56 66.05 67.26 67.33 66.44 64.32 63.05 62.55 63.17 63.02 62.53 62.25 62.73 63.46 63.28 63.48 63.05 63.79 63.97 63.98 65.39 65.36 64.49 64.68 64.61 64.42 64.15 63.95 63.54 63.26 63.14 63.01 62.87
66.15 65.64 66.56 66.93 64.19 64.26 62.63 62.48 62.49 62.16 62.28 61.68 62.22 62.45 62.89 62.94 62.72 63.07 63.14 63.11 62.60 64.39 64.90 63.82 63.73 63.71 63.52 63.19 62.93 62.61 62.49 62.34 62.16
66.21 64.85 66.31 65.85 63.08 63.40 62.36 62.12 62.07 61.34 61.45 61.19 61.39 61.51 61.58 61.53 61.67 61.99 62.52 63.03 63.15 62.57 64.23 64.48 63.97 62.97 62.88 62.72 62.42 62.06 61.78 61.59 61.48
65.89 65.08 65.17 63.42 61.90 63.23 62.68 60.95 61.83 61.39 60.89 59.68 59.54 60.39 60.63 60.53 60.38 60.38 60.93 61.94 62.53 61.79 61.52 61.93 60.89 62.20 61.84 61.97 61.82 61.30 61.07 60.86 60.64
63.51 63.76 63.35 61.93 61.62 62.68 62.08 61.38 60.27 60.14 60.19 59.04 58.35 58.39 59.11 58.86 59.35 59.57 59.42 59.89 59.97 60.50 61.06 61.34 60.28 58.61 59.93 59.88 60.53 60.70 60.54 59.98 59.56
62.43 61.72 62.18 61.82 62.18 61.62 61.95 61.52 59.79 59.73 59.65 57.25 56.28 52.83 55.02 57.16 57.75 58.22 57.90 57.93 58.67 58.64 58.84 59.03 59.18 59.96 58.44 57.72 57.68 58.45 58.51 58.37 58.21
61.35 62.35 62.03 61.80 62.01 61.09 61.86 61.89 60.95 58.34 59.06 58.57 56.49 52.48 51.12 53.96 56.51 56.33 57.03 57.18 56.69 57.17 57.51 57.22 57.81 58.13 57.55 56.14 56.34 57.03 55.70 55.90 56.09
60.06 61.09 60.00 61.63 61.82 62.11 61.06 62.12 61.27 60.29 57.35 58.75 58.17 57.66 57.00 52.72 51.22 55.47 56.05 56.71 55.76 55.98 56.52 56.12 57.04 57.28 58.62 55.92 56.28 54.78 53.53 53.21 53.66
57.47 59.20 59.34 60.39 61.68 61.43 62.19 62.09 61.24 60.99 59.75 59.02 57.58 56.66 56.55 56.30 54.85 51.37 53.22 55.37 56.05 55.97 55.59 55.46 56.62 55.75 56.61 57.43 57.08 54.42 53.64 52.04 51.79

GFSFLT1_sfc_wetblb_144.txt.gz
Wetbulb
74.36 74.14 74.19 74.31 74.52 74.39 73.77 73.19 72.91 73.13 73.91 74.04 73.55 73.72 73.60 71.94 69.59 69.12 70.47 69.75 72.60 72.81 72.32 73.20 73.42 73.37 73.36 73.95 73.90 73.72 73.75 73.72 74.41
74.23 74.07 73.64 74.13 73.94 74.05 73.38 73.03 73.11 73.41 73.47 73.35 73.18 73.79 72.73 68.84 68.36 68.59 68.75 69.73 72.04 72.10 72.19 72.42 72.47 72.63 72.83 73.11 73.46 73.32 72.77 73.26 73.94
73.99 73.80 73.71 73.76 73.55 73.40 73.25 72.98 72.89 72.82 72.65 73.15 72.62 72.56 71.53 68.81 67.43 67.36 68.11 71.01 71.00 71.31 71.07 70.99 71.58 72.03 72.13 72.17 72.52 72.41 72.14 72.82 73.29
73.41 73.42 73.44 73.17 73.12 73.04 72.75 72.82 72.43 72.40 72.12 72.35 72.15 71.62 70.02 65.16 65.96 67.02 66.90 70.12 69.47 69.59 69.51 69.66 69.88 70.31 71.02 71.32 71.32 71.57 71.59 71.34 71.61
72.37 72.75 73.22 72.95 72.80 72.72 72.49 72.29 72.19 71.81 72.22 71.85 71.60 71.16 68.50 64.18 63.89 65.10 66.36 68.53 68.93 68.73 68.27 68.60 68.88 69.55 69.85 70.13 70.39 70.50 70.61 70.38 69.85
69.91 71.93 72.68 72.61 72.53 72.49 72.04 71.91 71.17 70.69 70.60 70.16 69.62 68.58 64.47 63.76 64.08 64.63 67.61 68.37 68.41 68.19 67.87 67.78 67.80 67.99 68.05 68.31 68.27 68.37 68.57 68.71 68.82
68.63 70.82 71.58 72.04 72.06 72.09 72.00 71.27 70.85 68.89 65.13 65.63 67.85 64.28 63.52 62.93 63.54 64.13 67.68 67.73 67.86 67.73 67.35 67.12 67.04 67.09 67.12 66.99 66.93 66.87 66.83 66.87 67.00
67.23 67.68 68.79 67.99 70.23 68.92 68.94 67.86 67.75 64.83 65.82 65.23 64.76 63.94 62.89 62.42 63.06 65.39 66.53 67.05 67.02 67.11 66.81 66.55 66.45 66.41 66.29 66.25 66.16 66.14 66.04 65.87 65.67
65.78 66.90 67.72 67.25 67.06 66.21 65.46 65.18 62.69 64.71 65.34 64.06 61.61 62.69 61.86 62.16 61.71 64.73 66.99 66.87 66.50 66.75 66.68 66.38 66.12 65.94 65.95 65.85 65.74 65.57 65.42 65.25 65.12
63.24 64.47 66.96 66.83 66.71 64.85 62.79 60.39 60.46 59.95 60.08 61.61 62.65 61.85 61.66 60.51 62.50 62.25 64.86 66.94 66.18 66.26 66.50 66.37 66.14 65.90 65.69 65.43 65.26 65.02 64.86 64.90 64.83
62.76 62.17 65.27 66.28 65.79 62.62 60.50 59.79 59.27 60.06 60.59 59.00 61.86 62.02 61.26 61.41 60.46 60.98 63.29 66.30 66.50 65.90 66.04 65.92 65.83 65.73 65.30 64.98 64.63 64.38 64.19 64.06 64.09
60.80 62.83 65.88 66.01 62.11 60.12 59.38 59.42 59.28 58.61 59.25 57.96 59.30 60.76 60.53 61.17 60.70 60.64 60.27 61.89 65.45 65.76 65.02 65.12 65.15 65.04 64.85 64.43 64.03 63.71 63.57 63.47 63.34
61.30 63.80 65.57 66.40 62.01 60.68 58.68 58.64 58.17 57.74 58.19 57.63 57.87 58.49 60.39 60.48 60.62 60.41 59.60 58.77 60.01 63.61 65.11 64.32 64.34 64.36 64.22 64.00 63.53 63.19 63.04 62.90 62.77
63.91 64.19 65.36 65.23 61.39 60.06 59.71 58.35 58.02 57.08 56.90 57.90 57.23 57.29 57.47 58.27 59.84 58.41 58.73 59.24 58.93 59.14 64.50 64.85 64.23 63.48 63.61 63.39 63.04 62.70 62.39 62.13 61.97
65.30 63.61 64.40 62.57 60.06 58.68 58.92 58.10 57.92 57.09 56.16 58.27 56.22 55.48 55.38 56.38 56.57 57.10 59.19 58.73 58.30 57.46 57.33 56.37 59.66 62.99 62.71 62.51 62.42 62.08 61.79 61.42 61.13
64.41 63.92 63.23 60.96 60.31 59.03 58.49 57.29 56.61 56.05 56.00 54.52 53.45 53.39 53.96 53.92 54.62 55.43 55.91 56.17 56.73 56.52 57.17 55.42 55.07 57.22 61.25 61.32 61.37 61.68 61.17 60.46 60.14
63.65 63.12 61.15 60.78 59.76 59.74 57.92 57.29 55.74 55.42 55.10 52.21 51.08 48.33 50.39 51.98 53.70 52.99 54.82 53.68 54.66 55.01 55.19 54.75 53.89 53.54 53.04 55.12 59.17 59.83 59.48 59.25 58.65
63.01 61.95 61.56 60.81 60.19 59.62 58.41 57.57 56.50 54.05 53.36 53.95 51.06 47.93 46.63 48.86 50.15 50.55 51.39 51.07 51.14 51.58 52.13 53.00 53.66 52.70 51.00 54.29 55.87 58.10 56.90 56.79 56.71
62.07 61.54 61.45 60.84 60.11 59.67 59.23 59.24 57.80 55.88 52.83 53.57 54.91 51.60 51.11 46.97 45.66 49.03 50.00 50.36 50.63 50.09 50.64 50.66 51.52 51.75 51.92 54.74 55.04 56.74 55.30 54.35 54.22
60.19 59.53 59.78 60.33 59.82 60.15 59.76 58.72 57.85 56.58 54.30 53.51 50.96 50.49 50.07 49.78 48.18 45.08 46.99 49.23 50.30 50.15 49.67 49.34 48.99 50.08 51.16 51.53 55.04 56.33 54.47 53.27 52.68

GFSFLT1_sfc_wetblb_147.txt.gz
Wetbulb
74.49 74.42 74.54 74.49 74.43 73.88 73.38 73.22 73.49 74.07 73.68 73.76 73.24 72.48 71.85 70.60 68.31 68.13 70.50 70.33 72.30 72.92 72.82 72.75 73.33 73.47 73.36 73.89 73.98 74.15 73.79 73.33 73.51
74.12 74.09 74.31 74.32 74.10 73.50 72.82 73.54 73.31 73.84 73.52 73.07 72.22 71.63 70.68 67.40 67.14 67.65 68.71 69.56 71.60 71.92 72.49 72.31 72.39 72.61 72.70 73.35 73.44 73.11 73.01 73.38 73.38
73.73 73.86 73.80 73.93 73.69 73.74 73.85 73.50 72.76 72.36 72.64 72.45 71.88 70.95 69.99 67.04 65.94 66.04 66.82 69.83 70.70 71.22 71.44 71.62 71.80 72.05 72.04 71.99 71.89 72.10 72.13 72.59 72.71
73.37 73.65 73.51 73.57 73.57 73.37 72.88 72.53 71.87 72.61 72.34 72.22 70.37 69.35 68.40 63.16 64.71 65.64 66.17 70.05 69.90 70.37 70.47 70.50 70.71 71.07 71.25 71.16 71.01 71.42 71.34 71.56 71.33
73.01 72.95 73.09 73.39 73.09 72.95 72.61 72.35 72.07 71.99 71.84 70.65 69.88 69.01 67.45 62.49 64.05 64.39 64.91 68.00 68.86 69.22 69.15 69.56 69.93 70.08 70.17 70.28 70.36 70.22 69.83 69.98 70.24
70.17 71.69 72.72 72.83 72.93 72.54 72.20 72.12 71.39 70.94 70.93 69.94 68.54 66.47 62.49 62.50 63.85 64.34 68.11 68.22 68.36 68.24 68.07 68.05 68.09 68.36 68.20 68.48 68.58 68.57 68.60 68.52 68.51
68.93 70.48 72.21 72.30 72.40 72.30 71.74 71.90 70.69 67.22 64.66 65.34 65.75 62.40 61.41 62.72 63.09 64.38 68.34 67.77 67.93 67.85 67.34 67.11 67.17 67.20 67.29 67.15 66.98 66.88 66.85 66.98 66.97
65.17 66.45 67.56 68.27 70.57 69.44 69.21 67.88 65.91 63.03 64.82 62.91 62.34 61.59 61.22 62.65 63.01 64.69 66.69 67.07 67.21 67.35 66.84 66.52 66.43 66.50 66.47 66.33 66.19 66.11 65.92 65.74 65.63
63.06 64.44 64.22 65.96 66.52 66.11 65.35 65.35 66.46 64.33 63.80 62.42 61.10 60.11 60.05 61.06 62.09 64.93 66.38 67.21 66.69 66.91 66.72 66.55 66.29 66.13 66.22 66.16 66.08 65.91 65.73 65.68 65.48
62.87 63.64 63.23 64.90 65.63 64.98 63.78 62.73 59.27 62.02 62.52 61.86 61.07 60.34 58.93 58.76 60.62 61.98 65.06 66.82 66.57 66.53 66.74 66.64 66.42 66.20 65.82 65.60 65.43 65.30 65.24 65.21 65.03
61.46 62.88 63.59 63.92 66.45 63.23 60.85 58.88 58.58 57.62 61.92 61.49 60.57 59.63 59.70 59.33 59.18 61.33 63.52 66.52 66.87 66.25 66.44 66.23 66.08 65.91 65.55 65.12 64.92 64.71 64.47 64.40 64.20
61.38 61.98 62.36 63.65 65.79 61.15 58.80 58.15 57.57 58.39 61.17 59.84 59.68 60.08 59.55 59.07 58.31 59.25 59.57 61.86 65.76 65.98 65.52 65.49 65.47 65.41 65.10 64.78 64.45 64.19 63.90 63.75 63.50
60.65 61.44 62.06 65.47 64.26 61.06 59.49 58.09 57.06 57.88 58.67 59.02 59.75 59.70 59.74 58.61 58.23 58.79 58.46 58.63 59.85 64.07 65.41 64.71 64.78 64.71 64.56 64.27 63.92 63.57 63.45 63.20 62.93
61.61 62.00 63.67 65.43 63.83 60.72 59.58 56.67 57.26 56.57 56.91 57.65 57.88 59.25 59.02 58.79 59.59 57.26 57.80 58.97 58.63 59.53 64.56 64.84 64.25 63.83 63.97 63.83 63.50 63.04 62.79 62.46 62.31
61.78 63.00 64.48 64.53 62.44 59.12 58.25 57.30 56.51 56.00 56.15 57.46 56.23 57.56 56.60 56.51 57.60 56.52 58.62 57.26 57.19 56.39 56.31 57.61 61.09 63.50 63.04 63.00 62.99 62.58 62.19 61.73 61.44
63.60 62.96 64.11 63.02 60.62 58.82 58.49 56.31 56.25 54.71 55.33 53.24 51.67 51.56 53.21 54.74 55.94 57.31 55.98 56.15 55.97 55.40 54.87 54.63 55.15 58.42 62.89 62.30 62.05 62.16 61.71 60.99 60.42
64.29 63.23 63.09 61.67 59.36 57.82 57.75 57.32 55.32 53.60 53.98 51.86 49.83 48.20 49.52 51.07 53.62 53.92 55.28 54.23 54.98 55.37 55.18 53.38 53.45 53.08 53.11 56.63 61.25 60.71 60.10 59.57 58.97
63.94 63.32 62.11 60.73 59.40 58.09 57.71 57.24 56.45 53.11 52.35 54.08 49.71 46.42 45.53 48.10 49.48 50.45 51.90 51.92 51.47 50.40 52.88 52.75 52.56 51.27 51.66 55.05 56.85 59.14 58.53 57.66 57.32
64.13 63.26 61.88 60.54 59.66 58.09 58.09 57.71 56.30 54.79 53.14 51.71 53.39 50.27 49.94 45.95 45.26 47.80 48.10 48.67 49.73 48.54 49.18 49.36 50.28 49.32 49.58 52.72 55.02 58.33 57.68 56.37 55.41
61.77 62.04 61.23 60.60 59.70 59.02 58.53 57.16 56.60 55.48 53.77 51.57 50.49 48.41 48.52 48.17 46.09 44.44 45.54 48.24 47.72 47.47 46.91 46.94 47.11 48.56 50.04 49.89 53.34 57.49 55.83 54.33 53.26

GFSFLT1_sfc_wetblb_150.txt.gz
Wetbulb
74.11 74.31 74.58 74.62 74.11 73.57 73.38 73.57 74.14 73.91 73.33 72.71 72.53 71.93 71.08 69.50 67.44 68.14 69.78 69.77 72.52 72.97 72.69 72.48 72.99 73.15 73.00 73.05 73.68 73.46 72.46 72.02 72.71
73.93 74.14 74.14 74.16 73.60 73.11 73.43 73.58 73.74 72.99 72.67 72.17 71.85 70.97 69.74 65.78 66.00 66.81 68.50 69.63 71.97 72.51 72.45 72.31 72.33 72.34 72.47 72.85 73.14 72.75 72.45 72.44 73.07
73.95 73.78 73.60 73.53 73.17 73.31 73.17 73.11 72.77 72.26 71.81 71.35 70.72 69.70 68.47 65.73 64.63 65.19 67.73 70.87 71.41 71.96 72.00 71.65 71.66 71.73 71.88 72.09 72.30 72.24 72.19 72.63 72.57
73.82 73.58 73.33 73.25 72.97 73.04 72.47 72.69 72.10 71.84 71.10 70.04 69.16 68.56 67.56 62.44 63.29 66.50 67.34 70.72 70.99 71.39 70.94 70.79 70.66 70.76 70.83 70.99 71.23 71.54 71.74 71.64 71.40
73.10 73.37 73.23 73.04 72.99 72.43 71.82 71.70 72.32 71.10 70.17 69.15 68.18 68.11 66.63 61.47 63.09 64.75 66.22 69.32 69.65 70.33 69.91 69.93 70.06 69.86 70.06 70.16 70.09 70.43 70.56 70.60 70.55
70.74 71.57 72.88 73.08 72.69 72.17 71.50 71.69 71.55 70.66 69.53 68.09 67.48 65.42 61.27 61.61 63.71 64.11 67.63 68.26 68.59 68.85 68.56 68.60 68.49 68.75 68.68 68.43 68.57 68.75 68.74 68.94 69.10
68.26 69.63 71.78 72.62 72.29 71.95 71.26 70.86 70.91 67.18 64.05 64.38 64.98 61.32 60.00 61.25 63.04 64.51 68.15 67.77 67.97 67.91 67.41 67.35 67.17 67.19 67.18 67.05 67.04 66.91 66.88 67.03 67.29
65.37 64.79 64.82 66.00 70.45 67.67 67.82 66.61 64.34 61.99 61.76 60.87 60.98 60.12 59.62 61.54 62.66 65.66 67.91 67.31 67.24 67.29 66.93 66.67 66.56 66.59 66.50 66.43 66.35 66.28 66.11 66.04 65.91
63.15 63.63 62.58 64.59 65.13 65.41 65.34 64.33 64.36 61.51 61.45 60.65 59.29 58.41 59.07 58.96 62.05 64.08 66.65 67.14 66.76 66.98 66.84 66.71 66.55 66.44 66.41 66.38 66.32 66.09 65.94 65.89 65.73
61.92 63.16 63.02 62.45 64.88 63.84 63.76 63.84 62.31 61.24 60.52 59.92 59.39 57.67 57.60 58.20 61.34 62.25 66.47 67.20 66.65 66.71 66.94 66.76 66.49 66.22 66.12 65.92 65.74 65.48 65.36 65.32 65.12
61.41 62.63 63.27 63.25 64.94 65.21 62.89 62.11 59.97 60.54 60.26 59.54 59.14 58.09 58.16 57.86 60.33 62.30 63.54 65.62 66.98 66.27 66.56 66.37 66.15 65.99 65.69 65.35 65.07 64.85 64.60 64.53 64.31
61.49 62.56 63.49 63.83 65.48 63.31 62.18 58.30 58.76 60.11 60.26 58.17 58.01 59.13 57.77 58.01 58.47 59.47 61.04 63.62 66.09 66.45 65.69 65.75 65.67 65.48 65.32 64.90 64.48 64.21 63.99 63.84 63.61
61.20 61.39 62.53 64.03 63.63 62.65 60.25 57.77 59.52 59.49 58.49 57.85 58.36 58.54 58.24 57.07 57.42 58.13 58.40 58.62 60.08 64.40 65.59 65.00 65.03 64.93 64.77 64.47 64.05 63.65 63.51 63.28 62.97
60.64 61.15 62.60 62.72 61.50 61.47 60.14 57.55 59.39 58.59 58.14 58.25 57.66 57.84 57.26 57.27 58.05 56.48 57.63 58.91 58.66 59.42 64.77 65.02 64.51 64.18 64.25 64.01 63.64 63.19 62.98 62.61 62.27
61.16 61.27 64.03 62.31 61.33 60.50 60.01 57.23 57.15 58.05 57.88 58.57 57.15 56.31 56.28 56.38 56.02 55.94 57.56 57.39 57.63 57.52 58.46 58.71 61.36 63.82 63.45 63.35 63.11 62.71 62.36 61.83 61.44
61.40 62.09 64.01 62.32 60.68 60.12 59.61 57.46 56.36 54.92 57.64 53.34 51.64 51.25 53.53 54.47 54.94 56.02 55.50 55.48 55.15 54.85 55.36 55.73 56.29 59.07 63.12 62.62 62.34 62.40 61.85 61.25 60.68
60.79 61.39 63.46 61.64 60.19 59.70 59.26 57.04 54.52 54.83 56.06 54.37 50.98 49.06 51.69 51.10 53.63 54.84 55.53 54.36 54.28 54.17 54.30 53.96 54.13 53.65 54.00 58.05 62.10 61.19 60.31 59.67 59.02
62.79 61.67 63.07 61.51 60.18 58.61 59.38 57.69 56.50 54.31 51.47 55.28 50.02 46.68 48.27 48.42 48.97 51.05 52.71 52.95 52.68 53.14 53.00 52.26 52.39 51.24 52.24 55.38 57.32 59.93 59.25 57.83 57.40
63.69 63.28 63.03 61.88 60.26 58.77 58.84 58.28 57.12 55.95 53.05 51.40 52.29 50.21 50.17 47.07 45.91 47.61 48.07 48.19 49.63 48.00 49.89 50.02 50.76 48.53 49.92 52.44 54.89 58.99 58.83 56.71 55.47
63.94 63.70 62.13 61.69 59.68 59.13 59.00 57.74 56.63 56.77 54.16 52.55 50.06 48.87 48.77 48.45 47.03 44.39 44.99 46.88 46.32 45.72 46.78 47.52 48.25 48.77 48.71 48.37 51.60 57.79 55.84 54.26 53.63